LTU595 EDDG-EDLW

Flight info

Callsign LTU595
Flight time 0h 15m
Altitude 9000
Route DOMEG2Y DOMEG DOMEG2A
Aircraft MD11/H-SDE1E2E3FGHIJ2J3J4J5M1RWXY/LB1D1

Departure

Time 2026-04-09 21:03
Airport Münster Osnabrück Airport (EDDG)

Arrival

Time 2026-04-09 21:18
Airport Dortmund Airport (EDLW)
Time Latitude Longitude Altitude Speed Heading
2026-04-09 20:46 52.13327 7.69420 172 ft 0 kts 160°
2026-04-09 20:57 52.13322 7.69423 195 ft 2 kts 160°
2026-04-09 20:58 52.13298 7.69436 171 ft 6 kts 162°
2026-04-09 20:58 52.13258 7.69418 171 ft 6 kts 223°
2026-04-09 20:58 52.13248 7.69363 171 ft 4 kts 282°
2026-04-09 20:58 52.13264 7.69324 171 ft 5 kts 320°
2026-04-09 20:59 52.13306 7.69287 171 ft 7 kts 338°
2026-04-09 20:59 52.13360 7.69254 171 ft 9 kts 339°
2026-04-09 20:59 52.13426 7.69247 171 ft 10 kts 19°
2026-04-09 20:59 52.13469 7.69332 172 ft 9 kts 64°
2026-04-09 21:00 52.13497 7.69431 172 ft 11 kts 65°
2026-04-09 21:00 52.13524 7.69543 172 ft 10 kts 72°
2026-04-09 21:00 52.13562 7.69764 172 ft 12 kts 73°
2026-04-09 21:01 52.13587 7.69895 170 ft 7 kts 71°
2026-04-09 21:01 52.13611 7.69986 169 ft 9 kts 54°
2026-04-09 21:01 52.13649 7.70038 169 ft 5 kts 20°
2026-04-09 21:01 52.13677 7.70038 169 ft 4 kts 356°
2026-04-09 21:02 52.13732 7.70011 171 ft 12 kts 331°
2026-04-09 21:02 52.13768 7.69937 173 ft 6 kts 276°
2026-04-09 21:02 52.13760 7.69892 173 ft 4 kts 251°
2026-04-09 21:02 52.13649 7.69374 175 ft 111 kts 251°
2026-04-09 21:03 52.13282 7.67623 254 ft 202 kts 251°
2026-04-09 21:03 52.12848 7.65542 1703 ft 172 kts 246°
2026-04-09 21:03 52.12255 7.64025 3547 ft 155 kts 223°
2026-04-09 21:03 52.11140 7.63301 4432 ft 201 kts 189°
2026-04-09 21:04 52.09589 7.63578 4874 ft 245 kts 176°
2026-04-09 21:04 52.07794 7.63724 4982 ft 263 kts 185°
2026-04-09 21:04 52.05969 7.63571 4978 ft 263 kts 188°
2026-04-09 21:04 52.04143 7.63344 4975 ft 263 kts 188°
2026-04-09 21:05 52.02343 7.63102 4980 ft 264 kts 189°
2026-04-09 21:05 52.00517 7.62852 4985 ft 257 kts 189°
2026-04-09 21:05 51.98801 7.62621 4975 ft 237 kts 189°
2026-04-09 21:05 51.97181 7.62399 4984 ft 234 kts 190°
2026-04-09 21:06 51.95569 7.62169 4987 ft 233 kts 190°
2026-04-09 21:06 51.93954 7.61940 4987 ft 232 kts 190°
2026-04-09 21:06 51.92338 7.61710 4988 ft 232 kts 190°
2026-04-09 21:06 51.90728 7.61481 4988 ft 232 kts 190°
2026-04-09 21:07 51.89142 7.61256 4986 ft 232 kts 190°
2026-04-09 21:07 51.87508 7.61025 4985 ft 232 kts 190°
2026-04-09 21:07 51.85915 7.60800 4987 ft 232 kts 190°
2026-04-09 21:07 51.84301 7.60573 4986 ft 232 kts 190°
2026-04-09 21:08 51.82693 7.60347 4991 ft 232 kts 190°
2026-04-09 21:08 51.81076 7.60120 4990 ft 232 kts 190°
2026-04-09 21:08 51.79466 7.59894 4977 ft 233 kts 190°
2026-04-09 21:08 51.77847 7.59667 4991 ft 234 kts 190°
2026-04-09 21:09 51.76228 7.59440 4972 ft 231 kts 190°
2026-04-09 21:09 51.74656 7.59223 4569 ft 225 kts 190°
2026-04-09 21:09 51.73062 7.58997 4194 ft 230 kts 189°
2026-04-09 21:09 51.71472 7.58819 4012 ft 230 kts 184°
2026-04-09 21:10 51.69864 7.59029 3995 ft 233 kts 177°
2026-04-09 21:10 51.68253 7.59387 3991 ft 234 kts 176°
2026-04-09 21:10 51.66661 7.59762 3994 ft 234 kts 176°
2026-04-09 21:10 51.65071 7.60339 3977 ft 238 kts 160°
2026-04-09 21:11 51.63780 7.62013 3986 ft 245 kts 128°
2026-04-09 21:11 51.63134 7.64570 3996 ft 249 kts 100°
2026-04-09 21:11 51.62953 7.67368 4003 ft 252 kts 95°
2026-04-09 21:11 51.62819 7.70186 4001 ft 253 kts 95°
2026-04-09 21:12 51.62684 7.73007 3988 ft 252 kts 95°
2026-04-09 21:12 51.62549 7.75822 3999 ft 251 kts 95°
2026-04-09 21:12 51.62407 7.78587 3990 ft 251 kts 95°
2026-04-09 21:12 51.62255 7.81386 4000 ft 250 kts 95°
2026-04-09 21:13 51.62054 7.84160 3987 ft 251 kts 105°
2026-04-09 21:13 51.61288 7.86643 3996 ft 247 kts 127°
2026-04-09 21:13 51.60412 7.89030 3995 ft 248 kts 126°
2026-04-09 21:13 51.59175 7.90870 3988 ft 241 kts 156°
2026-04-09 21:14 51.57598 7.91462 3998 ft 231 kts 187°
2026-04-09 21:14 51.56143 7.90605 3930 ft 223 kts 224°
2026-04-09 21:14 51.55518 7.88493 3864 ft 213 kts 270°
2026-04-09 21:14 51.55913 7.86175 3567 ft 216 kts 294°
2026-04-09 21:15 51.56649 7.84039 3395 ft 219 kts 296°
2026-04-09 21:15 51.57283 7.81824 3298 ft 218 kts 288°
2026-04-09 21:15 51.57630 7.79478 3057 ft 219 kts 274°
2026-04-09 21:15 51.57440 7.77096 2622 ft 215 kts 249°
2026-04-09 21:16 51.56709 7.74994 2350 ft 211 kts 237°
2026-04-09 21:16 51.55974 7.73172 2090 ft 176 kts 238°
2026-04-09 21:16 51.55403 7.71608 1645 ft 154 kts 239°
2026-04-09 21:16 51.54924 7.70065 1196 ft 169 kts 242°
2026-04-09 21:17 51.54269 7.68202 1236 ft 198 kts 238°
2026-04-09 21:17 51.53596 7.66255 990 ft 201 kts 240°
2026-04-09 21:17 51.52915 7.64310 682 ft 200 kts 240°
2026-04-09 21:17 51.52214 7.62338 459 ft 197 kts 241°
2026-04-09 21:18 51.51641 7.60709 421 ft 114 kts 241°
2026-04-09 21:18 51.51385 7.60184 426 ft 9 kts 177°
2026-04-09 21:18 51.51383 7.60187 427 ft 0 kts 163°
2026-04-09 21:18 51.51360 7.60204 429 ft 19 kts 149°
2026-04-09 21:19 51.51339 7.60353 427 ft 12 kts 58°
2026-04-09 21:19 51.51385 7.60473 428 ft 14 kts 58°
2026-04-09 21:19 51.51432 7.60597 424 ft 10 kts 58°
2026-04-09 21:19 51.51472 7.60703 419 ft 12 kts 59°
2026-04-09 21:20 51.51516 7.60821 425 ft 12 kts 59°
2026-04-09 21:20 51.51555 7.60927 424 ft 11 kts 60°
2026-04-09 21:20 51.51569 7.60987 425 ft 2 kts 86°
2026-04-09 21:20 51.51567 7.61001 427 ft 1 kts 103°
2026-04-09 21:21 51.51529 7.61083 429 ft 13 kts 149°
2026-04-09 21:21 51.51480 7.61116 429 ft 0 kts 152°
2026-04-09 21:22 51.51474 7.61120 441 ft 0 kts 145°